[[{"header":{"parameterUnit":"m.s-1","parameterCategory":1,"la1":30.2991,"la2":30.254,"lo1":-89.0895,"lo2":-89.0444,"dy":0.0017,"dx":0.0017,"nx":28,"ny":28,"refTime":"2023-09-01T03:00:00:Z","depth":0,"parameterNumber":2,"parameterNumberName":"U-component_of_WINDS"},"data":[0,0,0,0,0,0,0,0,0,0,0,0,0,0,0,0,0,0,0,0,0,0,0,0,0,0,0,0,0,0,0,0,0,0,0,0,0,0,0,0,0,0,0,0,0,0,0,0,0,0,0,0,0,0,0,0,0,0,-1.0027,-1.0027,0,-1.0004,-1.0004,-1.0004,-1.0013,-1.0013,-1.0014,-1.0014,-0.9987,-0.9986,-0.9985,0,0,0,0,0,0,0,0,0,0,0,0,0,-1.0075,-1.0074,-1.0027,-1.0027,-1.0027,-1.0004,-1.0004,-1.0003,-1.0013,-1.0013,-1.0014,-1.0015,-0.9988,-0.9986,-0.9985,0,0,0,0,0,0,0,0,0,0,0,0,0,-1.0053,-1.0074,-1.0027,-1.0029,-1.0029,-1.0004,-1.0004,-1.0003,-1.0012,-1.0013,-1.0014,-1.0015,-0.9988,-0.9987,-0.9985,-0.9957,0,0,-0.9979,-0.9978,0,0,0,0,0,0,0,0,-1.0055,-1.0052,-1.0029,-1.0028,-1.0028,-1.0012,-1.0011,-0.9988,-1.0012,-1.0018,-1.0014,-1.0015,-0.9995,-0.9992,-0.9986,-0.9956,-0.9954,-0.9979,-0.9978,-0.9977,-0.9976,0,0,0,0,0,0,0,-1.0056,-1.0053,-1.0018,-1.0028,-1.0028,-1.0029,-1.0027,-1.0007,-1.0002,-1.0018,-1.0019,-1.0016,-0.9995,-0.9988,-0.9986,-0.9954,-0.9979,-0.9977,-0.9976,-0.9975,-0.9897,-0.9896,0,0,0,0,0,0,-1.0058,-1.0054,-1.0019,-1.0017,-1.0044,-1.0027,-1.0025,-1.0016,-1.0002,-1.0001,-1.0015,-1.0016,-0.9991,-0.9988,-0.9985,-0.995,-0.9977,-0.9975,-0.9974,-0.9898,-0.9897,-0.9896,0,0,0,0,0,0,-1.0059,-1.0055,-1.002,-1.0036,-1.0031,-1.0026,-1.0016,-1.0016,-1.0009,-1.0,-0.9999,-1.0009,-0.9991,-0.9987,-0.9964,-0.995,-0.9974,-0.9973,-0.9899,-0.9898,-0.9897,-0.9882,0,0,0,0,0,0,-1.0061,-1.0055,-1.0046,-1.0036,-1.003,-1.0,-1.0015,-1.0015,-1.0006,-1.0007,-0.9995,-0.9993,-0.9992,-0.9966,-0.9962,-0.9948,-0.9971,-0.9901,-0.9899,-0.9897,-0.9884,-0.988,-0.9877,0,0,0,0,0,-1.0062,-1.0042,-1.0045,-1.0041,-1.0019,-0.9999,-0.9996,-0.9996,-1.0005,-0.9994,-0.9989,-0.9994,-0.9952,-0.9964,-0.9959,-0.9944,-0.9902,-0.9899,-0.9897,-0.9885,-0.9881,-0.9877,0,0,0,0,0,0,-1.005,-1.0041,-1.0044,-1.0021,-1.0011,-1.0001,-0.9988,-0.9992,-0.9978,-0.998,-0.9979,-0.9976,-0.9951,-0.9945,-0.9958,-0.9915,-0.9928,-0.9925,-0.992,-0.9916,-0.9913,-0.9915,-0.997,0,0,0,0,0,-1.0045,-1.0032,-1.0023,-1.0003,-0.9998,-0.9994,-0.9985,-0.9986,-0.9975,-0.9971,-0.9964,-0.9952,-0.9936,-0.9926,-0.9911,-0.9882,-0.9879,-0.9869,-0.9866,-0.9864,-0.9861,-0.9844,-0.9839,-0.9889,-0.9889,-0.9889,0,0,-1.0034,-1.0027,-1.0018,-1.0001,-0.9993,-0.9978,-0.999,-0.9974,-0.9962,-0.9968,-0.9945,-0.9939,-0.9926,-0.99,-0.9888,-0.9894,-0.9846,-0.9861,-0.9859,-0.9857,-0.9841,-0.9837,-0.9833,-0.9887,-0.9888,-0.9888,0,0,-1.0006,-1.0,-0.9982,-0.9974,-0.9962,-0.9959,-0.9955,-0.9944,-0.9941,-0.9918,-0.9922,-0.9907,-0.988,-0.987,-0.9861,-0.9827,-0.9831,-0.9822,-0.9806,-0.9789,-0.9785,-0.9782,-0.9769,-0.9765,-0.982,-0.982,-0.982,0,-0.9993,-0.9972,-0.9972,-0.9955,-0.9946,-0.9951,-0.9932,-0.9924,-0.9908,-0.9901,-0.9908,-0.9874,-0.9865,-0.9836,-0.9828,-0.9821,-0.9814,-0.9824,-0.9786,-0.9783,-0.9779,-0.9767,-0.9762,-0.9819,-0.9819,-0.9819,-0.9819,0,-0.9956,-0.9941,-0.9927,-0.9912,-0.9902,-0.9884,-0.988,-0.9869,-0.987,-0.9865,-0.9841,-0.9831,-0.9813,-0.9806,-0.9807,-0.9777,-0.9781,-0.9787,-0.98,-0.9774,-0.9762,-0.9758,-0.9817,-0.9818,-0.9818,-0.9818,0,0,-0.9921,-0.9906,-0.9901,-0.9893,-0.988,-0.9868,-0.9849,-0.9832,-0.9823,-0.9811,-0.9794,-0.977,-0.9776,-0.9766,-0.9765,-0.9751,-0.9723,-0.9758,-0.9758,-0.9752,-0.9688,-0.9684,-0.9678,-0.9725,-0.9724,-0.9724,-0.9689,0,-0.9892,-0.9861,-0.9859,-0.983,-0.9815,-0.9819,-0.9802,-0.9791,-0.9786,-0.9771,-0.9765,-0.9748,-0.9757,-0.9751,-0.9737,-0.973,-0.971,-0.9732,-0.9709,-0.9708,-0.9712,-0.9672,-0.9668,-0.9636,-0.9685,-0.9684,-0.9683,0,-0.9854,-0.9842,-0.9811,-0.9799,-0.9792,-0.9778,-0.9762,-0.9748,-0.9735,-0.9732,-0.9721,-0.9721,-0.97,-0.9713,-0.9683,-0.9698,-0.9688,-0.9682,-0.9681,-0.9679,-0.9694,-0.9669,-0.9626,-0.9621,-0.9676,-0.9677,-0.9677,0,-0.9831,-0.9806,-0.9785,-0.9778,-0.9764,-0.9753,-0.9746,-0.9734,-0.9724,-0.9709,-0.9702,-0.9685,-0.9676,-0.9661,-0.9656,-0.9667,-0.9626,-0.9639,-0.9622,-0.9622,-0.9614,-0.9615,-0.9569,-0.9608,-0.9608,-0.9608,-0.9608,0,-0.9799,-0.978,-0.9774,-0.9761,-0.9739,-0.9737,-0.9715,-0.9708,-0.9697,-0.9681,-0.9683,-0.9668,-0.9662,-0.9645,-0.9641,-0.9617,-0.9612,-0.9608,-0.9607,-0.9608,-0.9609,-0.9602,-0.9604,-0.9607,-0.9607,-0.9607,-0.9607,0,-0.9771,-0.9766,-0.9742,-0.973,-0.9726,-0.9711,-0.97,-0.9686,-0.968,-0.966,-0.9655,-0.9646,-0.9627,-0.962,-0.9596,-0.9593,-0.9564,-0.9565,-0.9569,-0.9569,-0.9552,-0.9554,-0.9501,-0.9493,-0.9537,-0.9536,-0.9536,0,-0.9751,-0.9736,-0.9722,-0.9712,-0.9705,-0.9689,-0.9678,-0.9674,-0.9663,-0.9646,-0.9634,-0.9615,-0.9599,-0.9567,-0.9558,-0.9539,-0.9539,-0.9522,-0.9537,-0.9537,-0.9539,-0.954,-0.9538,-0.9519,-0.9519,-0.9518,-0.9518,0,-0.9715,-0.9713,-0.9699,-0.9683,-0.967,-0.9657,-0.9645,-0.9636,-0.963,-0.9617,-0.9597,-0.9585,-0.9561,-0.9541,-0.9521,-0.9513,-0.9514,-0.9513,-0.9508,-0.9509,-0.9512,-0.951,-0.9562,-0.9515,-0.9515,-0.9515,-0.9516,-0.9516,-0.969,-0.9677,-0.9665,-0.9648,-0.9638,-0.9626,-0.9612,-0.9605,-0.9589,-0.9569,-0.9567,-0.9546,-0.9531,-0.9505,-0.9495,-0.9477,-0.9482,-0.9475,-0.9473,-0.9471,-0.947,-0.9515,-0.9473,-0.9473,-0.9474,-0.9474,-0.9474,0,-0.9655,-0.9647,-0.9631,-0.9614,-0.96,-0.9603,-0.9589,-0.9577,-0.9558,-0.9545,-0.9529,-0.9505,-0.9486,-0.9474,-0.9454,-0.9442,-0.9442,-0.9437,-0.9437,-0.9435,-0.9467,-0.9473,-0.9437,-0.9437,-0.9437,-0.9437,-0.9437,-0.9437,-0.9635,-0.9612,-0.9609,-0.9581,-0.9572,-0.9552,-0.9544,-0.9532,-0.9521,-0.9495,-0.9479,-0.9472,-0.9458,-0.9437,-0.9418,-0.9415,-0.9408,-0.9402,-0.9399,-0.9429,-0.9433,-0.9437,-0.9443,-0.94,-0.94,-0.9369,-0.9369,-0.9369]},{"header":{"parameterUnit":"m.s-1","parameterCategory":1,"la1":30.2991,"la2":30.254,"lo1":-89.0895,"lo2":-89.0444,"dy":0.0017,"dx":0.0017,"nx":28,"ny":28,"refTime":"2023-09-01T03:00:00:Z","depth":0,"parameterNumber":3,"parameterNumberName":"V-component_of_WINDS"},"data":[0,0,0,0,0,0,0,0,0,0,0,0,0,0,0,0,0,0,0,0,0,0,0,0,0,0,0,0,0,0,0,0,0,0,0,0,0,0,0,0,0,0,0,0,0,0,0,0,0,0,0,0,0,0,0,0,0,0,1.3115,1.3113,0,1.2904,1.2902,1.2899,1.2768,1.2768,1.2767,1.2766,1.2549,1.2544,1.2538,0,0,0,0,0,0,0,0,0,0,0,0,0,1.3404,1.34,1.3115,1.3112,1.311,1.2904,1.2902,1.2899,1.2768,1.2768,1.2767,1.2766,1.255,1.2544,1.2538,0,0,0,0,0,0,0,0,0,0,0,0,0,1.3245,1.3398,1.3115,1.302,1.3009,1.2905,1.2901,1.2898,1.2769,1.2768,1.2767,1.2766,1.2552,1.2545,1.2537,1.251,0,0,1.2514,1.251,0,0,0,0,0,0,0,0,1.3254,1.3234,1.3037,1.3026,1.3014,1.2861,1.2923,1.2768,1.2769,1.286,1.2766,1.2765,1.2653,1.2637,1.26,1.25,1.2491,1.2513,1.2508,1.2505,1.2503,0,0,0,0,0,0,0,1.3265,1.3242,1.3031,1.3034,1.302,1.2988,1.2964,1.2893,1.2765,1.2852,1.2842,1.2819,1.2647,1.2608,1.2594,1.2488,1.2513,1.2506,1.2501,1.2498,1.2356,1.2357,0,0,0,0,0,0,1.3291,1.3253,1.3038,1.3025,1.3134,1.2983,1.2957,1.2912,1.2765,1.2742,1.282,1.2814,1.2621,1.2603,1.2586,1.2544,1.2505,1.2498,1.2493,1.2356,1.2357,1.2358,0,0,0,0,0,0,1.3298,1.3274,1.3047,1.3136,1.3105,1.2979,1.293,1.2908,1.2868,1.2741,1.2718,1.2803,1.262,1.2597,1.253,1.2535,1.2494,1.2487,1.2355,1.2356,1.2357,1.2462,0,0,0,0,0,0,1.3307,1.3277,1.3265,1.3137,1.31,1.2995,1.293,1.2905,1.2856,1.2845,1.2719,1.2698,1.2617,1.2543,1.2523,1.2524,1.2481,1.2353,1.2355,1.2357,1.2458,1.2467,1.2475,0,0,0,0,0,1.3318,1.3302,1.3265,1.324,1.3083,1.2996,1.2975,1.2883,1.2857,1.2844,1.2763,1.2702,1.2539,1.2537,1.2513,1.2512,1.2353,1.2355,1.2357,1.2454,1.2465,1.2475,0,0,0,0,0,0,1.3433,1.3284,1.3241,1.3184,1.3104,1.2974,1.2954,1.2898,1.2823,1.2816,1.2705,1.2678,1.2623,1.2561,1.2562,1.2479,1.2439,1.2436,1.2521,1.253,1.2539,1.2554,1.2475,0,0,0,0,0,1.3452,1.3394,1.3267,1.3228,1.3191,1.308,1.3038,1.2975,1.2887,1.2852,1.2766,1.2683,1.2613,1.2569,1.2497,1.245,1.242,1.2437,1.2446,1.2454,1.2452,1.2422,1.2428,1.2364,1.2364,1.2364,0,0,1.349,1.3402,1.3371,1.325,1.318,1.3121,1.3052,1.2993,1.2948,1.2843,1.2775,1.271,1.261,1.2553,1.2523,1.25,1.2464,1.2456,1.2463,1.2456,1.2425,1.2431,1.2436,1.2365,1.2365,1.2365,0,0,1.3529,1.3457,1.3417,1.335,1.3246,1.3173,1.3164,1.3043,1.2996,1.2927,1.2847,1.2793,1.2674,1.2606,1.2556,1.2574,1.2515,1.2554,1.2597,1.257,1.2575,1.2579,1.2584,1.2587,1.2553,1.2553,1.2554,0,1.3589,1.3498,1.3404,1.335,1.3298,1.3203,1.3161,1.31,1.2979,1.2945,1.2921,1.2772,1.2698,1.2624,1.2628,1.2592,1.2577,1.2566,1.2582,1.2585,1.2587,1.2591,1.2593,1.2559,1.2558,1.2558,1.2557,0,1.3577,1.3515,1.3496,1.3382,1.3329,1.3282,1.318,1.3138,1.3081,1.3011,1.2942,1.2851,1.2759,1.2738,1.268,1.2656,1.2644,1.2603,1.2559,1.26,1.2602,1.2602,1.2566,1.2564,1.2563,1.2561,0,0,1.3678,1.3515,1.3509,1.3457,1.3337,1.3287,1.3237,1.3148,1.3114,1.3035,1.2989,1.2893,1.2854,1.2798,1.2733,1.2709,1.2729,1.267,1.2666,1.2683,1.2695,1.2726,1.2729,1.269,1.269,1.269,1.2703,0,1.3697,1.3601,1.3516,1.3451,1.3393,1.3303,1.3259,1.3181,1.3116,1.3057,1.2985,1.2918,1.2873,1.2838,1.2811,1.2732,1.2729,1.273,1.2645,1.2643,1.267,1.2729,1.276,1.2777,1.2703,1.2703,1.2703,0,1.3706,1.3631,1.3561,1.3449,1.3421,1.3383,1.3296,1.3241,1.3152,1.3106,1.3045,1.2978,1.292,1.2886,1.2806,1.2808,1.2769,1.2726,1.2724,1.271,1.2674,1.2715,1.278,1.2782,1.2704,1.2704,1.2704,0,1.3785,1.3668,1.361,1.3568,1.3436,1.3411,1.3355,1.3264,1.3218,1.3142,1.311,1.303,1.2985,1.2924,1.2837,1.282,1.2765,1.2724,1.2725,1.2727,1.2714,1.2715,1.2771,1.2694,1.2694,1.2694,1.2694,0,1.3814,1.3774,1.3644,1.3608,1.3561,1.3465,1.3421,1.3357,1.3278,1.3229,1.3147,1.3103,1.2991,1.2934,1.2866,1.2809,1.279,1.2751,1.2732,1.2756,1.2761,1.2727,1.2722,1.2694,1.2694,1.2694,1.2694,0,1.3892,1.3804,1.3735,1.3617,1.3586,1.3557,1.3455,1.3418,1.3349,1.3288,1.3268,1.316,1.3088,1.2997,1.2895,1.285,1.28,1.2774,1.283,1.2819,1.2825,1.2825,1.2858,1.2857,1.2784,1.2785,1.2785,0,1.3915,1.3882,1.3761,1.3723,1.3669,1.3608,1.3561,1.3466,1.342,1.3317,1.3292,1.3214,1.3146,1.3036,1.2949,1.2871,1.2841,1.2858,1.2828,1.2854,1.2839,1.2841,1.2837,1.2865,1.2866,1.2867,1.2868,0,1.3964,1.3923,1.3857,1.3777,1.3723,1.3655,1.3583,1.3557,1.3448,1.34,1.3326,1.3274,1.3172,1.3096,1.3008,1.2949,1.289,1.2879,1.2874,1.2897,1.293,1.2911,1.2848,1.2877,1.2876,1.2876,1.2875,1.2875,1.4013,1.398,1.3891,1.3821,1.3758,1.3694,1.3653,1.3581,1.3517,1.3427,1.3376,1.3304,1.3217,1.3093,1.3038,1.298,1.2958,1.2952,1.295,1.295,1.2957,1.2943,1.2964,1.2964,1.2964,1.2963,1.2963,0,1.4056,1.3995,1.3932,1.3836,1.3782,1.3734,1.3653,1.361,1.3548,1.3473,1.3409,1.3325,1.3251,1.316,1.308,1.3052,1.3023,1.3034,1.3033,1.3021,1.2982,1.2993,1.3059,1.3059,1.3059,1.3059,1.3059,1.3059,1.4072,1.4014,1.3963,1.3873,1.3812,1.3741,1.3699,1.364,1.3579,1.3489,1.3428,1.337,1.3288,1.3203,1.3133,1.3108,1.3082,1.3101,1.3068,1.3032,1.3024,1.3016,1.3025,1.3097,1.3097,1.3111,1.3112,1.3112]}]]